Location: Gleizolles
(44.4833°N, 6.7667°E)
Time: 23:48:30
(UTC+00:00)

S-56A Canister/Altair - Pass Details

Date: 01 July 2024
Orbit: 638 x 2488 km, 38.9° (Epoch: 24 July)

Event Time Altitude Azimuth Distance (km) Brightness Sun altitude
Rises 18:22:58 0° 242° (WSW) 3,366 11.4 8.2°
Reaches altitude 10° 18:25:11 10° 236° (SW) 2,593 10.7 7.9°
Maximum altitude 18:31:08 50° 162° (SSE) 1,458 8.8 6.9°
Drops below altitude 10° 18:40:02 10° 91° (E) 3,827 10.6 5.5°
Sets 18:43:58 0° 87° (E) 5,122 11.2 4.9°
